Torna al catalogo

NOAA 16 DEB

AttivoSSO
NORAD 42429·DEBRIS·🇺🇸 United States

Lanciato Sep 21, 2000 da Vandenberg Space Force Base

Loading…

Prossimi Passaggi (prossime 24 ore)

TLE

AggiornatoSource: Space-Track

Epoca: Sep 12, 2026, 11:24 UTC

1 42429U 00055TZ  26255.47539662  .00004738  00000-0  15978-2 0  9997
2 42429  98.8288 344.0736 0022568 267.7937  92.0664 14.37331270518795

Traccia NOAA 16 DEB in tempo reale con AllMySat

Download on the App Store